Hot Springs, VA

2:48 AM EDT on May 29, 2017 (GMT -0400)
Ingalls

Weather History for KHSP - May, 2013

Change the Weather History Date:

Sunday, May 12, 2013

  Actual Average Record
Temperature  
Mean Temperature 42 °F -  
Max Temperature 48 °F 62 °F 78 °F (2000)
Min Temperature 37 °F 46 °F 35 °F (2017)
Degree Days  
Heating Degree Days 22    
Moisture  
Dew Point 31 °F    
Average Humidity 65    
Maximum Humidity 100    
Minimum Humidity 43    
Precipitation  
Precipitation 0.00 in - - ()
Sea Level Pressure  
Sea Level Pressure 29.95 in    
Wind  
Wind Speed 16 mph (WNW)    
Max Wind Speed 24 mph    
Max Gust Speed 36 mph    
Visibility 10 miles    
Events Rain    
Averages and records for this station are not official NWS values.
T = Trace of Precipitation, MM = Missing Value Source: NWS Daily Summary

Daily Weather History Graph

Daily Weather History Graph

Search for Another Location

Airport or City:

Trip Planner

Search our weather history database for the weather conditions in past years. The results will help you decide how hot, cold, wet, or windy it might be!

Date:

Astronomy

May. 12, 2013 Rise Set
Actual Time 6:11 AM EDT 8:20 PM EDT
Civil Twilight 5:42 AM EDT 8:49 PM EDT
Nautical Twilight 5:06 AM EDT 9:25 PM EDT
Astronomical Twilight 4:27 AM EDT 10:04 PM EDT
Moon 8:05 AM EDT (5/12) 10:45 PM EDT (5/12)
Length of Visible Light 15h 07m
Length of Day
14h 08m
Waxing Crescent, 6% of the Moon is Illuminated
May 12
Waxing Crescent
May 18
First Quarter
May 25
Full
May 31
Last Quarter
Jun 8
New

Hourly Weather History & Observations

Time (EDT) Temp. Windchill Dew Point Humidity Pressure Visibility Wind Dir Wind Speed Gust Speed Precip Events Conditions
12:15 AM 48.2 °F - 46.4 °F 93% 29.90 in 10.0 mi West 19.6 mph 24.2 mph N/A   Mostly Cloudy
12:35 AM 48.2 °F - 46.4 °F 93% 29.90 in 10.0 mi West 20.7 mph 28.8 mph N/A   Mostly Cloudy
12:55 AM 48.2 °F - 46.4 °F 93% 29.90 in 10.0 mi West 16.1 mph 28.8 mph N/A   Mostly Cloudy
1:15 AM 48.2 °F - 46.4 °F 93% 29.89 in 10.0 mi WNW 15.0 mph 28.8 mph N/A   Overcast
1:35 AM 48.2 °F - 42.8 °F 82% 29.89 in 10.0 mi West 20.7 mph 27.6 mph N/A   Scattered Clouds
1:55 AM 46.4 °F 39.2 °F 42.8 °F 87% 29.89 in 10.0 mi WNW 18.4 mph 27.6 mph N/A   Scattered Clouds
2:15 AM 46.4 °F 39.2 °F 39.2 °F 76% 29.90 in 10.0 mi WNW 18.4 mph 27.6 mph N/A   Scattered Clouds
2:35 AM 44.6 °F 37.2 °F 37.4 °F 76% 29.89 in 10.0 mi WNW 17.3 mph 26.5 mph N/A   Clear
2:55 AM 44.6 °F 36.9 °F 37.4 °F 76% 29.89 in 10.0 mi WNW 18.4 mph 29.9 mph N/A   Clear
3:15 AM 44.6 °F 36.6 °F 39.2 °F 81% 29.88 in 10.0 mi WNW 19.6 mph 26.5 mph N/A   Scattered Clouds
3:35 AM 44.6 °F 38.1 °F 39.2 °F 81% 29.88 in 10.0 mi WNW 13.8 mph 26.5 mph N/A   Scattered Clouds
3:55 AM 42.8 °F 35.1 °F 39.2 °F 87% 29.89 in 10.0 mi WNW 16.1 mph - N/A   Scattered Clouds
4:15 AM 42.8 °F 36.2 °F 39.2 °F 87% 29.89 in 10.0 mi West 12.7 mph - N/A   Overcast
4:35 AM 44.6 °F 38.8 °F 41.0 °F 87% 29.88 in 10.0 mi West 11.5 mph - N/A   Overcast
4:55 AM 44.6 °F 38.8 °F 41.0 °F 87% 29.88 in 10.0 mi West 11.5 mph 17.3 mph N/A   Overcast
5:35 AM 42.8 °F 36.6 °F 42.8 °F 100% 29.88 in 7.0 mi West 11.5 mph 18.4 mph N/A   Overcast
5:55 AM 42.8 °F 35.1 °F 42.8 °F 100% 29.88 in 0.2 mi West 16.1 mph 24.2 mph N/A Rain Light Rain
6:15 AM 42.8 °F 35.1 °F 42.8 °F 100% 29.88 in 0.2 mi WNW 16.1 mph 23.0 mph N/A Rain Light Rain
6:35 AM 39.2 °F 30.8 °F 39.2 °F 100% 29.90 in 2.0 mi NW 15.0 mph 21.9 mph N/A   Overcast
6:55 AM 39.2 °F 30.5 °F 35.6 °F 87% 29.90 in 10.0 mi NW 16.1 mph 25.3 mph N/A   Overcast
7:15 AM 37.4 °F 29.3 °F 33.8 °F 87% 29.90 in 10.0 mi NW 12.7 mph 24.2 mph N/A   Scattered Clouds
7:35 AM 37.4 °F 28.2 °F 33.8 °F 87% 29.91 in 10.0 mi WNW 16.1 mph 25.3 mph N/A   Clear
7:55 AM 39.2 °F 30.8 °F 32.0 °F 75% 29.91 in 10.0 mi WNW 15.0 mph 26.5 mph N/A   Clear
8:15 AM 39.2 °F 32.5 °F 32.0 °F 75% 29.91 in 10.0 mi WNW 10.4 mph 19.6 mph N/A   Clear
8:35 AM 39.2 °F 30.5 °F 30.2 °F 70% 29.91 in 10.0 mi WNW 16.1 mph 23.0 mph N/A   Clear
8:55 AM 41.0 °F 33.1 °F 30.2 °F 65% 29.92 in 10.0 mi WNW 15.0 mph 20.7 mph N/A   Clear
9:15 AM 42.8 °F 34.5 °F 30.2 °F 61% 29.91 in 10.0 mi WNW 18.4 mph 26.5 mph N/A   Clear
9:35 AM 42.8 °F 33.8 °F 30.2 °F 61% 29.91 in 10.0 mi WNW 21.9 mph 31.1 mph N/A   Clear
9:55 AM 42.8 °F 33.5 °F 28.4 °F 57% 29.91 in 10.0 mi WNW 23.0 mph 35.7 mph N/A   Clear
10:15 AM 42.8 °F 33.3 °F 26.6 °F 53% 29.91 in 10.0 mi WNW 24.2 mph 33.4 mph N/A   Clear
10:35 AM 42.8 °F 34.0 °F 26.6 °F 53% 29.92 in 10.0 mi West 20.7 mph 34.5 mph N/A   Clear
10:55 AM 42.8 °F 35.8 °F 26.6 °F 53% 29.92 in 10.0 mi WNW 13.8 mph 27.6 mph N/A   Clear
11:15 AM 42.8 °F 35.4 °F 26.6 °F 53% 29.93 in 10.0 mi NW 15.0 mph 24.2 mph N/A   Clear
11:35 AM 44.6 °F 36.9 °F 28.4 °F 53% 29.94 in 10.0 mi WNW 18.4 mph 26.5 mph N/A   Scattered Clouds
11:55 AM 44.6 °F 37.2 °F 28.4 °F 53% 29.94 in 10.0 mi West 17.3 mph 26.5 mph N/A   Scattered Clouds
12:15 PM 44.6 °F 36.9 °F 28.4 °F 53% 29.94 in 10.0 mi West 18.4 mph 27.6 mph N/A   Clear
12:35 PM 44.6 °F 37.2 °F 26.6 °F 49% 29.94 in 10.0 mi WNW 17.3 mph 25.3 mph N/A   Clear
12:55 PM 46.4 °F 39.5 °F 26.6 °F 46% 29.95 in 10.0 mi West 17.3 mph 23.0 mph N/A   Clear
1:15 PM 46.4 °F 39.0 °F 26.6 °F 46% 29.96 in 10.0 mi West 19.6 mph 25.3 mph N/A   Clear
1:35 PM 46.4 °F 38.7 °F 26.6 °F 46% 29.95 in 10.0 mi West 20.7 mph 27.6 mph N/A   Clear
1:55 PM 46.4 °F 39.5 °F 26.6 °F 46% 29.96 in 10.0 mi NW 17.3 mph 24.2 mph N/A   Scattered Clouds
2:15 PM 46.4 °F 41.1 °F 26.6 °F 46% 29.96 in 10.0 mi NW 11.5 mph 25.3 mph N/A   Scattered Clouds
2:35 PM 46.4 °F 41.5 °F 26.6 °F 46% 29.97 in 10.0 mi West 10.4 mph 26.5 mph N/A   Scattered Clouds
2:55 PM 46.4 °F 40.7 °F 26.6 °F 46% 29.97 in 10.0 mi NW 12.7 mph 29.9 mph N/A   Scattered Clouds
3:15 PM 46.4 °F 39.8 °F 26.6 °F 46% 29.97 in 10.0 mi West 16.1 mph 24.2 mph N/A   Scattered Clouds
3:35 PM 46.4 °F 39.2 °F 26.6 °F 46% 29.98 in 10.0 mi West 18.4 mph 25.3 mph N/A   Scattered Clouds
3:55 PM 46.4 °F 40.4 °F 26.6 °F 46% 29.97 in 10.0 mi WNW 13.8 mph 21.9 mph N/A   Scattered Clouds
4:15 PM 46.4 °F 38.3 °F 24.8 °F 43% 29.97 in 10.0 mi West 23.0 mph 31.1 mph N/A   Clear
4:35 PM 44.6 °F 38.4 °F 24.8 °F 46% 29.98 in 10.0 mi WNW 12.7 mph 24.2 mph N/A   Scattered Clouds
4:55 PM 46.4 °F 39.8 °F 26.6 °F 46% 29.99 in 10.0 mi WNW 16.1 mph 25.3 mph N/A   Scattered Clouds
5:15 PM 44.6 °F 38.1 °F 24.8 °F 46% 29.98 in 10.0 mi NW 13.8 mph 25.3 mph N/A   Scattered Clouds
5:35 PM 44.6 °F 37.8 °F 24.8 °F 46% 29.99 in 10.0 mi WNW 15.0 mph 26.5 mph N/A   Mostly Cloudy
5:55 PM 44.6 °F 37.8 °F 24.8 °F 46% 30.00 in 10.0 mi NW 15.0 mph 31.1 mph N/A   Mostly Cloudy
6:15 PM 44.6 °F 37.8 °F 26.6 °F 49% 30.00 in 10.0 mi WNW 15.0 mph 25.3 mph N/A   Mostly Cloudy
6:35 PM 44.6 °F 38.8 °F 24.8 °F 46% 29.99 in 10.0 mi WNW 11.5 mph 20.7 mph N/A   Mostly Cloudy
6:55 PM 44.6 °F 38.1 °F 24.8 °F 46% 30.00 in 10.0 mi WNW 13.8 mph 29.9 mph N/A   Mostly Cloudy
7:15 PM 42.8 °F 36.6 °F 24.8 °F 49% 30.01 in 10.0 mi WNW 11.5 mph 17.3 mph N/A   Mostly Cloudy
7:35 PM 42.8 °F 36.2 °F 24.8 °F 49% 30.02 in 10.0 mi WNW 12.7 mph 20.7 mph N/A   Mostly Cloudy
7:55 PM 42.8 °F 35.4 °F 24.8 °F 49% 30.02 in 10.0 mi WNW 15.0 mph 26.5 mph N/A   Scattered Clouds
8:15 PM 41.0 °F 33.9 °F 24.8 °F 53% 30.02 in 10.0 mi West 12.7 mph 21.9 mph N/A   Clear
8:35 PM 41.0 °F 34.7 °F 26.6 °F 57% 30.03 in 10.0 mi WNW 10.4 mph 18.4 mph N/A   Clear
8:55 PM 39.2 °F 31.2 °F 26.6 °F 61% 30.04 in 10.0 mi WNW 13.8 mph 19.6 mph N/A   Clear
9:15 PM 39.2 °F 32.5 °F 26.6 °F 61% 30.04 in 10.0 mi West 10.4 mph 17.3 mph N/A   Clear
9:35 PM 39.2 °F 32.0 °F 26.6 °F 61% 30.05 in 10.0 mi West 11.5 mph 17.3 mph N/A   Clear
9:55 PM 39.2 °F 33.6 °F 26.6 °F 61% 30.06 in 10.0 mi West 8.1 mph 17.3 mph N/A   Clear
10:15 PM 37.4 °F 30.3 °F 26.6 °F 65% 30.07 in 10.0 mi West 10.4 mph 17.3 mph N/A   Clear
10:35 PM 37.4 °F 29.8 °F 26.6 °F 65% 30.07 in 10.0 mi West 11.5 mph 19.6 mph N/A   Clear
10:55 PM 37.4 °F 29.8 °F 26.6 °F 65% 30.06 in 10.0 mi West 11.5 mph 19.6 mph N/A   Scattered Clouds
11:15 PM 37.4 °F 28.2 °F 26.6 °F 65% 30.06 in 10.0 mi WNW 16.1 mph - N/A   Scattered Clouds
11:35 PM 37.4 °F 27.5 °F 26.6 °F 65% 30.05 in 10.0 mi WNW 18.4 mph 25.3 mph N/A   Clear
11:55 PM 37.4 °F 27.8 °F 26.6 °F 65% 30.05 in 10.0 mi WNW 17.3 mph 24.2 mph N/A   Clear